Tracking 19920 objects as of 14-Oct-2019
HD Live streaming from Space Station
objects crossing your sky now

SL-24 DEB

Track SL-24 DEB now!
10-day predictions


NORAD ID: 33318
Int'l Code: 2008-040G
Perigee: 586.7 km
Apogee: 603.8 km
Inclination: 98.2 °
Period: 96.4 minutes
Semi major axis: 6966 km
RCS: 5.1176 m2 (large)
Launch date: August 29, 2008
Source: Commonwealth of Independent States (former USSR) (CIS)
Launch site: TYURATAM MISSILE AND SPACE COMPLEX (TTMTR)

Note: This is SATELLITE DEBRIS
aabbcc
Your satellite tracking list
Your tracking list is empty




NASA's NSSDC Master Catalog

Two Line Element Set (TLE):
1 33318U 08040G   19286.79667701  .00000010  00000-0  69500-5 0  9995
2 33318  98.1511  96.8819 0012333 337.2199  22.8470 14.93152433603997
Source of the keplerian elements: AFSPC